STARLINK-1569, 46039

Orbit data source: Space-Track

STARLINK-1569, 46039 is a payload satellite owned by SpaceX/Seattle (US) in LEO that was launched on Fri, 07 Aug 2020 UTC via an FALCON 9 launch vehicle from the Air Force Eastern Test Range (AFETR). Payload-class satellites include a variety of spacecraft equipped with specific instruments for various scientific and technological missions. These include communications satellites like Starlink; space stations such as the ISS; scientific satellites like the Hubble; Earth observation satellites from companies like Planet Labs, Umbra, and HawkEye 360; GPS; miniature CubeSats for education and research; and military/defense satellites.

Loading next visibility...
Identifier
46039, 2020-055N
Orbit
LEO
Country
Flag of USUS
Related business
Manufacturer
SpaceX/Seattle
Mission
Operational Commercial Communications
Bus & Motor
STARLINK, Unknown motor
Mass
260 kg wet, ~248 kg dry
Launch date (UTC)
2020-08-07 (6 years ago)
Launch vehicle
FALCON 9
Launch site
Air Force Eastern Test Range (AFETR)
Object type
Payload
Rocket body
Debris
Shape & HBR
Box + 1 Pan, 10.1 m
Radar Cross Section
13.562 m², Large (>1 m²)

Expand to show TLE details & history
Last TLE update: 4 hours ago

TLE from 4 hours ago
0 STARLINK-1569
1 46039U 20055N   26123.33334491  .00022363  00000-0  76559-3 0  9999
2 46039  53.1602 232.8854 0001640  87.4012 118.1843 15.30169645  5872
Epoch: 2026-05-03T08:00Z
TLE epoch observation values (Epoch: 2026-05-03T08:00:01.000Z)
Latitude
-20.41578°
Longitude
87.74265°
Altitude
481.529 km
Speed
7.625 km/s
True Right ascension
04h 35m 56s
True Declination
-20° 17' 57"
Sunlit
Object was in daylight at epoch
Visualization orbit readout
Latitude
Unknown
Longitude
Unknown
Altitude
Unknown
Speed
Unknown
Apparent Right ascension
Unknown
Apparent Declination
Unknown
Sunlit
N/A
Visualization observer readout
Local Sidereal Time
19:39:45
Azimuth
Unknown
Elevation
Unknown
Doppler factor
Unknown
Orbital elements
Apogee altitude
476.686 km
Perigee altitude
474.438 km
Semi-major axis
6,853.699 km
Eccentricity
0.00016
Inclination
53.1602°
RAAN
232.8854°
Arg. of periapsis
87.4012°
True anomaly
118.20086°
Mean anomaly
118.1843°
Eccentric anomaly
118.19258°
Mean motion
3.82521 °/min
Orbital period
94.11 mins
BSTAR
0.00076559
Loading maneuver chart data...
Computing Atmospheric mass density...

Documentation

Showing up to 5 results
|